Ontario, CA

2:00 PM PDT on March 25, 2017 (GMT -0700)
Ontario International

Weather History for KONT - October, 2012

Change the Weather History Date:

Wednesday, October 10, 2012

  Actual Average Record
Temperature  
Mean Temperature 67 °F 69 °F  
Max Temperature 75 °F 82 °F 100 °F (2015)
Min Temperature 59 °F 57 °F 48 °F (2013)
Degree Days  
Heating Degree Days 0 1  
Month to date heating degree days 0 5  
Since 1 July heating degree days 0 8  
Cooling Degree Days 2 5  
Month to date cooling degree days 97 60  
Year to date cooling degree days 2019 1611  
Growing Degree Days 18 (Base 50)    
Moisture  
Dew Point 52 °F    
Average Humidity 60    
Maximum Humidity 84    
Minimum Humidity 36    
Precipitation  
Precipitation 0.00 in 0.01 in 0.26 in (1966)
Month to date precipitation 0.00 0.09  
Year to date precipitation 5.54 10.96  
Since 1 July precipitation 0.05  
Snow  
Snow 0.00 in - - ()
Month to date snowfall 0.0  
Year to date snowfall 0.0  
Snow Depth 0.00 in    
Sea Level Pressure  
Sea Level Pressure 29.94 in    
Wind  
Wind Speed 7 mph (WSW)    
Max Wind Speed 14 mph    
Max Gust Speed 22 mph    
Visibility 10 miles    
Events      
T = Trace of Precipitation, MM = Missing Value Source: NWS Daily Summary

Daily Weather History Graph

Daily Weather History Graph

Search for Another Location

Airport or City:

Trip Planner

Search our weather history database for the weather conditions in past years. The results will help you decide how hot, cold, wet, or windy it might be!

Date:

Astronomy

Oct. 10, 2012 Rise Set
Actual Time 6:52 AM PDT 6:21 PM PDT
Civil Twilight 6:26 AM PDT 6:46 PM PDT
Nautical Twilight 5:57 AM PDT 7:15 PM PDT
Astronomical Twilight 5:28 AM PDT 7:44 PM PDT
Moon 1:46 AM PDT (10/10) 3:15 PM PDT (10/10)
Length of Visible Light 12h 19m
Length of Day
11h 29m
Waning Crescent, 26% of the Moon is Illuminated
Oct 10
Waning Crescent
Oct 15
New
Oct 21
First Quarter
Oct 29
Full
Nov 6
Last Quarter

Hourly Weather History & Observations

Time (PDT) Temp. Dew Point Humidity Pressure Visibility Wind Dir Wind Speed Gust Speed Precip Events Conditions
12:53 AM 64.9 °F 55.0 °F 70% 29.95 in 10.0 mi West 4.6 mph - N/A   Overcast
1:53 AM 64.0 °F 54.0 °F 70% 29.96 in 10.0 mi West 5.8 mph - N/A   Mostly Cloudy
2:53 AM 63.0 °F 55.0 °F 75% 29.95 in 10.0 mi SW 5.8 mph - N/A   Mostly Cloudy
3:22 AM 62.6 °F 53.6 °F 72% 29.97 in 10.0 mi West 4.6 mph - N/A   Mostly Cloudy
3:45 AM 60.8 °F 53.6 °F 77% 29.97 in 10.0 mi West 4.6 mph - N/A   Mostly Cloudy
3:53 AM 62.1 °F 54.0 °F 75% 29.94 in 10.0 mi West 3.5 mph - N/A   Mostly Cloudy
4:27 AM 62.6 °F 55.4 °F 77% 29.97 in 10.0 mi West 5.8 mph - N/A   Overcast
4:53 AM 61.0 °F 55.0 °F 81% 29.94 in 10.0 mi West 6.9 mph - N/A   Overcast
5:43 AM 60.8 °F 55.4 °F 82% 29.98 in 10.0 mi Variable 4.6 mph - N/A   Mostly Cloudy
5:53 AM 60.1 °F 55.0 °F 83% 29.96 in 10.0 mi WSW 9.2 mph - N/A   Mostly Cloudy
6:53 AM 61.0 °F 54.0 °F 78% 29.96 in 10.0 mi WNW 5.8 mph - N/A   Mostly Cloudy
7:53 AM 62.1 °F 53.1 °F 72% 29.97 in 10.0 mi West 4.6 mph - N/A   Mostly Cloudy
8:18 AM 62.6 °F 53.6 °F 72% 30.00 in 10.0 mi South 5.8 mph - N/A   Mostly Cloudy
8:53 AM 63.0 °F 53.1 °F 70% 29.98 in 10.0 mi WSW 5.8 mph - N/A   Mostly Cloudy
9:53 AM 64.9 °F 54.0 °F 68% 29.98 in 10.0 mi SSW 5.8 mph - N/A   Mostly Cloudy
10:30 AM 66.2 °F 53.6 °F 64% 30.00 in 10.0 mi WSW 4.6 mph - N/A   Mostly Cloudy
10:53 AM 66.9 °F 53.1 °F 61% 29.97 in 10.0 mi South 4.6 mph - N/A   Mostly Cloudy
11:53 AM 70.0 °F 50.0 °F 49% 29.95 in 10.0 mi SSE 4.6 mph - N/A   Mostly Cloudy
12:53 PM 73.0 °F 48.0 °F 41% 29.92 in 10.0 mi Variable 5.8 mph - N/A   Scattered Clouds
1:53 PM 73.0 °F 48.0 °F 41% 29.89 in 10.0 mi West 9.2 mph - N/A   Mostly Cloudy
2:53 PM 75.0 °F 46.9 °F 37% 29.87 in 10.0 mi West 11.5 mph 17.3 mph N/A   Scattered Clouds
3:53 PM 73.0 °F 46.9 °F 39% 29.87 in 10.0 mi WSW 9.2 mph 17.3 mph N/A   Mostly Cloudy
4:53 PM 72.0 °F 48.0 °F 43% 29.86 in 10.0 mi WSW 13.8 mph 21.9 mph N/A   Scattered Clouds
5:53 PM 69.1 °F 48.9 °F 49% 29.87 in 10.0 mi WSW 11.5 mph - N/A   Partly Cloudy
6:53 PM 66.9 °F 50.0 °F 54% 29.88 in 10.0 mi WSW 12.7 mph - N/A   Partly Cloudy
7:53 PM 64.9 °F 52.0 °F 63% 29.89 in 10.0 mi West 8.1 mph - N/A   Mostly Cloudy
8:53 PM 64.0 °F 51.1 °F 63% 29.91 in 10.0 mi WSW 13.8 mph 52.9 mph N/A   Mostly Cloudy
9:53 PM 63.0 °F 50.0 °F 63% 29.91 in 10.0 mi WSW 9.2 mph - N/A   Mostly Cloudy
10:53 PM 63.0 °F 51.1 °F 65% 29.91 in 10.0 mi West 10.4 mph - N/A   Mostly Cloudy
11:53 PM 62.1 °F 52.0 °F 70% 29.91 in 10.0 mi WNW 9.2 mph - N/A   Mostly Cloudy